User: anonymous   Login
Location: Enborne
(51.3833°N, 1.3667°W)
Time: 02:02:47
(UTC+00:00)
Language:

SPOT 1/Viking Rocket - Orbit

View from above orbital plane
View from above orbital plane
View from above satellite
View from above satellite

Ground track
Ground track

The orbit data is extracted from the following two-line orbital elements,

1 16615U 86019C   20334.43581703 +.00000062 +00000-0 +39154-4 0  9990
2 16615 098.4588 035.8028 0010644 284.0906 086.4509 14.31817428819899
Epoch (UTC): 29 November 2020 10:27:34
Eccentricity: 0.0010644
inclination: 98.4588°
perigee height: 778 km
apogee height: 793 km
right ascension of ascending node: 35.8028°
argument of perigee: 284.0906°
revolutions per day: 14.31817428
mean anomaly at epoch: 86.4509°
orbit number at epoch: 81989

The dashed part of the orbit path shows where the satellite is in the earth's shadow,  

DLR